Regional Weather Roundup
Issued by NWS

Home | Current Version | Previous Version | Graphics & Text | Print | Product List | Glossary On
Versions: 1 2 3 4 5 6 7 8 9 10 11 12 13 14 15 16 17 18 19 20 21 22 23 24 25 26 27 28 29 30 31 32 33 34 35 36 37 38 39 40 41 42 43 44 45 46 47 48 49 50
000
ASUS45 KCYS 071010
RWRWY

WYOMING REGIONAL WEATHER ROUNDUP
NATIONAL WEATHER SERVICE CHEYENNE WY
300 AM MST SUN FEB 07 2016

NOTE:  "FAIR" INDICATES FEW OR NO CLOUDS BELOW 12,000 FEET
WITH NO SIGNIFICANT WEATHER AND/OR OBSTRUCTIONS TO VISIBILITY.

WYZ001-071100-
YELLOWSTONE NATIONAL PARK

CITY           SKY/WX    TMP DP  RH WIND       PRES   REMARKS
LK YELLOWSTONE   N/A     18  13  80 VRB5      30.30R WCI  11
W YELLOWSTONE  NOT AVBL

$$
WYZ002>013-054>058-071-098>099-071100-
NORTHERN WYOMING

CITY           SKY/WX    TMP DP  RH WIND       PRES   REMARKS
JACKSON        MOCLDY    30  23  74 S8        30.33S WCI  23
CODY           MOCLDY    25  16  68 CALM      30.22R
GREYBULL       CLOUDY    36  15  42 NW14      30.21R WCI  27
WORLAND        CLOUDY    26  18  71 SW8       30.24R WCI  18
SHERIDAN       CLOUDY    33  20  58 NW23      30.22R WCI  21
BUFFALO          N/A     31  19  61 NW22G39   30.19R WCI  18
GILLETTE       CLOUDY    31  17  56 NW24G30   30.15S WCI  17
HULETT         CLOUDY    34  14  44 W13G20    30.11S WCI  25
NEWCASTLE      FAIR      32  18  55 NW26G32   30.12R WCI  18

$$
WYZ014>020-022>026-101>103-071100-
CENTRAL WYOMING

CITY           SKY/WX    TMP DP  RH WIND       PRES   REMARKS
BIG PINEY      FAIR      26  18  71 N17       30.30F WCI  13
PINEDALE       FAIR      18  16  93 NW9       30.31S WCI   6
DUBOIS         FAIR      28  14  54 NW23G31   30.19R WCI  14
LANDER         FAIR      24  13  62 W8        30.19R WCI  15
RIVERTON       FAIR      36  16  44 NW23G32   30.19S WCI  24
CASPER         MOCLDY    21  12  68 NW6       30.18R WCI  13
DOUGLAS        CLOUDY    29  19  66 NW14        N/A  WCI  18

$$
WYZ021-027>030-104>119-071100-
SOUTHERN WYOMING

CITY           SKY/WX    TMP DP  RH WIND       PRES   REMARKS
EVANSTON       FAIR      26  14  60 W12       30.39R WCI  16
FORT BRIDGER   SUNNY     25  16  68 W16       30.40R WCI  12
ROCK SPRINGS   FAIR      25  14  63 W17       30.34S WCI  12
DIXON          FAIR       8   3  80 CALM      30.38R
RAWLINS        FAIR      23  15  71 W26G36    30.24R WCI   6
SARATOGA       FAIR      27  19  74 W33       30.23S WCI   9
LARAMIE        FAIR      25  16  68 W28G35    30.15R WCI   9
CHEYENNE       FAIR      33  16  49 W21G36    30.12R WCI  21
TORRINGTON     CLOUDY    28  17  63 NW9       30.17R WCI  19
PINE BLUFFS    FAIR      23  19  86 NW7       30.16R WCI  15

$$



USA.gov is the U.S. government's official web portal to all federal, state and local government web resources and services.